Location: Newark
(33.6333°S, 78.8500°W)
Time: 15:29:41
(UTC+00:00)

Vanguard 2 - Visible Passes

Search period start: 23 September 2019 00:00
Search period end: 03 October 2019 00:00
Orbit: 554 x 2937 km, 32.9° (Epoch: 23 September)

Date Brightness Start Highest point End Pass type
(mag) Time Alt. Az. Time Alt. Az. Time Alt. Az.
23 Sep 10.1 00:52:42 10° W 01:04:18 61° NNW 01:14:06 29° NE visible
23 Sep 10.9 03:03:44 10° W 03:15:31 31° NW 03:15:31 31° NW visible
24 Sep 10.3 01:10:54 10° W 01:22:26 51° NNW 01:31:06 30° NNE visible
24 Sep 11.2 03:23:03 10° W 03:32:31 23° NW 03:32:31 23° NW visible
24 Sep 9.7 23:19:57 10° W 23:29:16 72° NNW 23:44:33 10° ENE visible
25 Sep 10.5 01:29:14 10° W 01:40:31 42° NNW 01:48:10 28° NNE visible
25 Sep 11.5 03:43:25 10° WNW 03:49:36 16° NW 03:49:36 16° NW visible
25 Sep 9.9 23:38:00 10° W 23:47:24 63° NNW 00:02:33 10° ENE visible
26 Sep 10.8 01:47:50 10° W 01:58:37 33° NNW 02:05:18 25° N visible
26 Sep 10.1 23:56:06 10° W 00:05:32 53° NNW 00:20:19 10° NE visible
27 Sep 11.1 02:06:49 10° W 02:16:42 26° NNW 02:22:30 21° N visible
28 Sep 10.3 00:14:20 10° W 00:23:39 43° NNW 00:37:47 10° NE visible
28 Sep 11.3 02:26:34 10° WNW 02:34:50 18° NW 02:39:46 16° NNW visible
29 Sep 10.6 00:32:46 10° W 00:41:47 34° NNW 00:54:50 10° NNE visible
29 Sep 11.6 02:48:20 10° NW 02:53:01 12° NW 02:57:06 11° NNW visible
30 Sep 10.9 00:51:33 10° W 00:59:56 26° NNW 01:11:24 10° NNE visible
01 Oct 11.2 01:10:57 10° WNW 01:18:07 19° NNW 01:27:12 10° N visible
02 Oct 11.5 01:31:58 10° NW 01:36:21 12° NNW 01:41:20 10° NNW visible
02 Oct 10.7 23:36:59 10° WNW 23:43:47 25° NNW 23:53:25 10° NNE visible
